Погода в Черткове

Россия / Пензенская область     53°24′01″N   44°57′25″E
темп.,
°C
ветер,
м/с
пор.,
м/с
влажн.,
%
обл.,
%
осадки,
мм/ч
давл.,
гПа
погр.,
м
28 февраля, вс
вс2800:00−15ссз4109398 0.0 1010301
03:00−17сз4109574 0.0 1012208
06:00−19сз469849 0.0 1013123
09:00−17ссз479562 0.0 1014262
12:00−14ссз468944 0.0 1014415
15:00−12ссз469067 0.0 1014516
18:00−14ссз2395100 0.0 101622
21:00−17с229694 0.1 101920
1 марта, пн
пн100:00−19ссз229635 0.0 102020
03:00−19ссз229618 0.0 102220
06:00−20ссз22980 0.0 102320
09:00−17сз129414 0.0 102591
12:00−12зсз238842 0.0 1025278
15:00−9з359154 0.0 1024367
18:00−13зюз349693 0.0 102356
21:00−11юз489689 0.0 1022185
2 марта, вт
вт200:00−6зюз51294100 0.1 1019459
03:00−4зюз81495100 0.4 1015538
06:00−3зюз81495100 1.1 1011662
09:000зюз81496100 1.8 1008896
12:000з71399100 1.1 1006679
15:000зсз71198100 1.6 1005703
18:00−2зсз4129382 0.1 1005298
21:00−4зсз5119356 0.1 1006258
3 марта, ср
ср300:00−5зсз4119578 0.1 1006258
03:00−4сз5119478 0.1 1007295
06:00−4сз5119497 0.1 1007385
09:00−5сз6119294 0.1 1009641
12:00−4сз7108597 0.1 1010942
15:00−3сз6128089 0.1 10111147
18:00−6сз5128833 0.0 1013288
21:00−8зсз5109133 0.0 1015181
4 марта, чт
чт400:00−8зсз499559 0.0 1016190
03:00−12з449643 0.0 101681
06:00−11юз49953 0.0 1015170
09:00−6юз7138916 0.0 1013418
12:00−3зюз9158793 0.0 1009683
15:00−1зюз9178381 0.0 1007780
18:00−1зюз8178569 0.0 1006849
21:00−1зюз8168885 0.0 1006867